User: anonymous   Login
Location: *
(17.3280°S, 114.7300°W)
Time: 08:37:04
(UTC+00:00)
Language:

CZ-4B R/B - Orbit

View from above orbital plane
View from above orbital plane
View from above satellite
View from above satellite

Ground track
Ground track

The orbit data is extracted from the following two-line orbital elements,

1 27432U 02024C   20293.81963326 -.00000045 +00000-0 +67318-6 0  9991
2 27432 099.0914 298.1423 0050351 184.4809 348.4738 14.14098052951308
Epoch (UTC): 19 October 2020 19:40:16
Eccentricity: 0.0050351
inclination: 99.0914°
perigee height: 809 km
apogee height: 882 km
right ascension of ascending node: 298.1423°
argument of perigee: 184.4809°
revolutions per day: 14.14098052
mean anomaly at epoch: 348.4738°
orbit number at epoch: 95130

The dashed part of the orbit path shows where the satellite is in the earth's shadow,  

DLR